Regional Weather Roundup
Issued by NWS Green Bay, WI

Home | Current Version | Previous Version | Text Only | Print | Product List | Glossary On
Versions: 1 2 3 4 5 6 7 8 9 10 11 12 13 14 15 16 17 18 19 20 21 22 23 24 25 26 27 28 29 30 31 32 33 34 35 36 37 38 39 40 41 42 43 44 45 46 47 48 49 50
000
ASUS43 KGRB 290911
RWRGRB

NORTH-CENTRAL AND NORTHEAST WISCONSIN REGIONAL WEATHER ROUNDUP
NATIONAL WEATHER SERVICE GREEN BAY WI
400 AM CDT MON AUG 29 2016

WIZ005-009-010>012-018-019-291000-
NORTH CENTRAL WISCONSIN

CITY           SKY/WX    TMP DP  RH WIND       PRES   REMARKS
IRONWOOD       CLOUDY    66  63  90 S8G17     30.19S
MANITOWISH WTR CLOUDY    62  62 100 S3        30.23R
ARBOR VITAE    CLOUDY    64  63  94 SE3       30.23S
EAGLE RIVER    CLOUDY    61  61 100 CALM      30.25R FOG
LAND O LAKES   CLOUDY    54  54 100 CALM      30.25S
RHINELANDER    CLOUDY    62  62 100 S3        30.25S
PHILLIPS       CLOUDY    63  63  99 CALM      30.21S
ANTIGO         FOG       63  63 100 CALM      30.26S VSB 3/4
TOMAHAWK       CLOUDY    61  60  97 CALM      30.24S FOG
MERRILL        PTCLDY    62  62 100 CALM      30.24F
$$

WIZ013-073-291000-
NORTHEAST WISCONSIN

CITY           SKY/WX    TMP DP  RH WIND       PRES   REMARKS
IRON MOUNTAIN  FOG       61  60  97 SE6       30.24F VSB 1/2
MARINETTE      MOCLDY   N/A N/A N/A MISG      30.25S HAZE
OCONTO         CLOUDY    58  58  97 CALM      30.24R
$$

WIZ017-030-035>037-045-291000-
CENTRAL WISCONSIN

CITY           SKY/WX    TMP DP  RH WIND       PRES   REMARKS
MEDFORD        CLOUDY    64  64 100 SE5       30.23S
WAUSAU         PTCLDY    63  62  97 SE5       30.22F
MOSINEE        CLOUDY    63  63 100 SE5       30.25F
MARSHFIELD     PTCLDY    66  63  90 E3        30.22S
WISC RAPIDS    MOCLDY    68  67  96 SE7       30.23F
STEVENS POINT  CLOUDY    63  63  99 CALM      30.25R
WAUPACA        CLOUDY    67  67  99 CALM      30.24S FOG
SHAWANO        MOCLDY    66  63  89 CALM      30.25S
CLINTONVILLE   CLOUDY    63  63 100 CALM      30.24S FOG
WAUTOMA        CLOUDY    66  65  96 CALM      30.24S
$$

WIZ038-039-048-051-291000-
FOX VALLEY

CITY           SKY/WX    TMP DP  RH WIND       PRES   REMARKS
NWS GREEN BAY  CLOUDY    61  61 100 CALM      30.24S FOG
APPLETON       PTCLDY    64  64 100 CALM      30.22F
OSHKOSH        CLOUDY    66  63  90 SW3       30.24R
FOND DU LAC    MOCLDY    66  63  90 S6        30.24R
$$

WIZ022-050-052-291000-
EAST CENTRAL WISCONSIN

CITY           SKY/WX    TMP DP  RH WIND       PRES   REMARKS
EPHRAIM        FAIR      61  61 100 CALM      30.24S
WASHINGTON ISL NOT AVBL
STURGEON BAY   CLOUDY    60  60 100 SE3       30.26R
MANITOWOC      FOG       58  57  97 CALM      30.25S VSB 1/4
SHEBOYGAN      FOG       58  58 100 CALM      30.24S VSB 3/4
$$

LMZ563-521-522-541>543-291000-
LAKESHORE

STATION/POSITION TIME  TEMP    WIND        PRES    VSBY  WAVE
                       AIR SEA DIR/SP/G                  HT/PER
                 (UTC) (F)     (DEG/KT/KT) (MB)    (MI)  (FT/S)
SHEBOYGAN LKSHOR 0900   63     330/  2/  2 1023.8R
KEWAUNEE LKSHORE 0800   60     290/  2/  3 1023.3R
NORTHPORT PIER   0800   65     210/  2/  4 1024.0R
N MID LAKE BUOY  0850   71 71  150/  8/ 10 1024.0R         0
CHAMBERS ISLAND  0800   61     230/  1/  1 1024.0
MENOMINEE LKSHOR 0800   68     180/  3/  3 1023.1R
$$




USA.gov is the U.S. government's official web portal to all federal, state and local government web resources and services.